| time (UTC) | temp C | wind direction | speed KPH | gust KPH | rain 1hr cm | rain 24hr cm | rain mn cm | humidity % | barometer mb |
| 20260510061314 | 19 | 112 | 0.0 | 0.0 | 0.00 | 0.05 | 0.00 | 85 | 1014.8 |
| 20260510060315 | 20 | 112 | 0.0 | 0.0 | 0.00 | 0.05 | 0.00 | 86 | 1014.7 |
| 20260510054315 | 20 | 112 | 0.0 | 0.0 | 0.00 | 0.05 | 0.00 | 85 | 1014.6 |
| 20260510053315 | 20 | 112 | 0.0 | 0.0 | 0.00 | 0.05 | 0.00 | 86 | 1014.7 |
| 20260510052315 | 20 | 135 | 0.0 | 0.0 | 0.00 | 0.05 | 0.00 | 85 | 1014.8 |
| 20260510051315 | 20 | 135 | 0.0 | 0.0 | 0.00 | 0.05 | 0.00 | 85 | 1014.6 |
| 20260510050314 | 20 | 135 | 0.0 | 0.0 | 0.00 | 0.05 | 0.00 | 84 | 1014.7 |
| 20260510045320 | 20 | 135 | 0.0 | 0.0 | 0.00 | 0.05 | 0.05 | 84 | 1014.6 |
| 20260510044320 | 20 | 135 | 0.0 | 0.0 | 0.00 | 0.05 | 0.05 | 84 | 1014.6 |
| 20260510043320 | 20 | 135 | 0.0 | 0.0 | 0.00 | 0.05 | 0.05 | 84 | 1014.6 |
| 20260510042320 | 21 | 135 | 0.0 | 0.0 | 0.00 | 0.05 | 0.05 | 84 | 1014.4 |
| 20260510041419 | 21 | 135 | 0.0 | 0.0 | 0.00 | 0.05 | 0.05 | 84 | 1014.5 |
| 20260510040421 | 21 | 135 | 0.0 | 0.0 | 0.00 | 0.05 | 0.05 | 84 | 1014.4 |
| 20260510035421 | 21 | 135 | 0.0 | 0.0 | 0.00 | 0.05 | 0.05 | 83 | 1014.3 |
| 20260510034422 | 21 | 135 | 0.0 | 0.0 | 0.00 | 0.05 | 0.05 | 83 | 1014.1 |
| 20260510033420 | 22 | 135 | 0.0 | 0.0 | 0.00 | 0.05 | 0.05 | 82 | 1014.1 |
| 20260510032421 | 22 | 135 | 0.0 | 0.0 | 0.00 | 0.05 | 0.05 | 82 | 1014.0 |
| 20260510031420 | 22 | 135 | 0.0 | 0.0 | 0.00 | 0.05 | 0.05 | 83 | 1014.0 |
| 20260510025420 | 23 | 135 | 0.0 | 0.0 | 0.00 | 0.05 | 0.05 | 82 | 1013.6 |
| 20260510024519 | 23 | 135 | 0.0 | 0.0 | 0.00 | 0.05 | 0.05 | 81 | 1013.4 |
| 20260510022619 | 23 | 135 | 0.0 | 0.0 | 0.00 | 0.05 | 0.05 | 80 | 1013.3 |
| 20260510021622 | 23 | 135 | 0.0 | 0.0 | 0.00 | 0.05 | 0.05 | 79 | 1013.2 |
| 20260510020620 | 23 | 135 | 0.0 | 0.0 | 0.00 | 0.05 | 0.05 | 77 | 1013.1 |
| 20260510015621 | 24 | 135 | 0.0 | 0.0 | 0.00 | 0.05 | 0.05 | 76 | 1013.0 |
| 20260510014719 | 25 | 135 | 0.0 | 0.0 | 0.00 | 0.05 | 0.05 | 75 | 1012.8 |
| 20260510013720 | 25 | 135 | 0.0 | 0.0 | 0.00 | 0.05 | 0.05 | 73 | 1012.7 |
| 20260510012721 | 26 | 135 | 0.0 | 0.0 | 0.00 | 0.05 | 0.05 | 72 | 1012.8 |
| 20260510011721 | 26 | 135 | 0.0 | 0.0 | 0.00 | 0.05 | 0.05 | 70 | 1012.5 |
| 20260510010720 | 27 | 135 | 0.0 | 0.0 | 0.00 | 0.05 | 0.05 | 69 | 1012.5 |
| 20260510005720 | 27 | 135 | 0.0 | 0.0 | 0.00 | 0.05 | 0.05 | 68 | 1012.5 |
| 20260510004721 | 27 | 136 | 0.0 | 1.6 | 0.00 | 0.05 | 0.05 | 66 | 1012.4 |
| 20260510003721 | 28 | 159 | 0.0 | 3.2 | 0.00 | 0.05 | 0.05 | 64 | 1012.3 |
| 20260510002736 | 28 | 146 | 0.0 | 1.6 | 0.00 | 0.05 | 0.05 | 62 | 1012.2 |
| 20260510001720 | 28 | 45 | 0.0 | 0.0 | 0.00 | 0.05 | 0.05 | 59 | 1012.1 |
| 20260509235820 | 30 | 148 | 3.2 | 6.4 | 0.00 | 0.05 | 0.05 | 54 | 1012.0 |
| 20260509234820 | 31 | 194 | 0.0 | 0.0 | 0.00 | 0.05 | 0.05 | 50 | 1011.9 |
| 20260509233822 | 31 | 139 | 0.0 | 0.0 | 0.00 | 0.05 | 0.05 | 48 | 1011.8 |
| 20260509231821 | 31 | 115 | 0.0 | 3.2 | 0.00 | 0.05 | 0.05 | 49 | 1011.7 |
| 20260509230820 | 31 | 90 | 0.0 | 0.0 | 0.00 | 0.05 | 0.05 | 51 | 1011.8 |
| 20260509224919 | 31 | 143 | 0.0 | 3.2 | 0.00 | 0.05 | 0.05 | 52 | 1011.7 |
| 20260509224821 | 31 | 136 | 1.6 | 9.7 | 0.00 | 0.05 | 0.05 | 52 | 1011.7 |
| 20260509223819 | 31 | 131 | 0.0 | 3.2 | 0.00 | 0.05 | 0.05 | 54 | 1011.7 |
| 20260509222819 | 31 | 151 | 1.6 | 4.8 | 0.00 | 0.05 | 0.05 | 55 | 1011.6 |
| 20260509221819 | 31 | 157 | 0.0 | 1.6 | 0.00 | 0.05 | 0.05 | 55 | 1011.5 |
| 20260509220820 | 30 | 159 | 1.6 | 3.2 | 0.00 | 0.05 | 0.05 | 58 | 1011.4 |
| 20260509215918 | 29 | 168 | 0.0 | 3.2 | 0.00 | 0.05 | 0.05 | 58 | 1011.5 |
| 20260509211920 | 26 | 151 | 9.7 | 14.5 | 0.00 | 0.05 | 0.05 | 60 | 1012.0 |
| 20260509210018 | 26 | 126 | 6.4 | 16.1 | 0.00 | 0.05 | 0.05 | 57 | 1012.5 |
| 20260509205021 | 27 | 108 | 1.6 | 4.8 | 0.00 | 0.05 | 0.05 | 55 | 1012.5 |
| 20260509204119 | 28 | 116 | 0.0 | 3.2 | 0.00 | 0.05 | 0.05 | 53 | 1012.7 |
| 20260509203120 | 32 | 83 | 6.4 | 17.7 | 0.00 | 0.05 | 0.05 | 53 | 1012.7 |
| 20260509202119 | 33 | 360 | 0.0 | 0.0 | 0.00 | 0.05 | 0.05 | 50 | 1012.5 |
| 20260509201119 | 32 | 287 | 0.0 | 1.6 | 0.00 | 0.05 | 0.05 | 51 | 1012.5 |
| 20260509200119 | 32 | 175 | 1.6 | 4.8 | 0.00 | 0.05 | 0.05 | 54 | 1012.6 |
| 20260509195219 | 31 | 315 | 0.0 | 0.0 | 0.00 | 0.05 | 0.05 | 55 | 1012.6 |
| 20260509194237 | 31 | 194 | 0.0 | 6.4 | 0.00 | 0.05 | 0.05 | 55 | 1012.7 |
| 20260509192419 | 31 | 156 | 1.6 | 4.8 | 0.00 | 0.05 | 0.05 | 54 | 1013.1 |
| 20260509191418 | 31 | 248 | 3.2 | 8.0 | 0.00 | 0.05 | 0.05 | 56 | 1013.1 |
| 20260509190420 | 31 | 240 | 1.6 | 4.8 | 0.00 | 0.05 | 0.05 | 56 | 1013.2 |
| 20260509185520 | 31 | 75 | 0.0 | 0.0 | 0.00 | 0.05 | 0.05 | 57 | 1013.3 |
| 20260509184520 | 31 | 27 | 0.0 | 0.0 | 0.00 | 0.05 | 0.05 | 58 | 1013.5 |
| 20260509183536 | 31 | 186 | 3.2 | 6.4 | 0.00 | 0.05 | 0.05 | 58 | 1013.7 |
| 20260509182519 | 30 | 287 | 0.0 | 0.0 | 0.00 | 0.05 | 0.05 | 59 | 1014.0 |
| 20260509181520 | 30 | 332 | 0.0 | 3.2 | 0.00 | 0.05 | 0.05 | 64 | 1014.1 |
| 20260509180521 | 29 | 202 | 1.6 | 4.8 | 0.00 | 0.05 | 0.05 | 64 | 1014.1 |
| 20260509175519 | 30 | 359 | 3.2 | 4.8 | 0.00 | 0.05 | 0.05 | 64 | 1014.1 |
| 20260509173619 | 29 | 204 | 3.2 | 8.0 | 0.00 | 0.05 | 0.05 | 66 | 1014.6 |
| 20260509172620 | 29 | 177 | 1.6 | 6.4 | 0.00 | 0.05 | 0.05 | 67 | 1014.7 |
| 20260509171636 | 28 | 81 | 0.0 | 0.0 | 0.00 | 0.05 | 0.05 | 67 | 1014.5 |
| 20260509164619 | 28 | 210 | 0.0 | 1.6 | 0.00 | 0.05 | 0.05 | 70 | 1014.7 |
| 20260509163619 | 28 | 283 | 0.0 | 0.0 | 0.00 | 0.05 | 0.05 | 72 | 1014.9 |
| 20260509162619 | 27 | 346 | 0.0 | 6.4 | 0.00 | 0.05 | 0.05 | 73 | 1014.7 |
| 20260509161619 | 27 | 203 | 4.8 | 8.0 | 0.00 | 0.05 | 0.05 | 76 | 1014.7 |
| 20260509160620 | 26 | 195 | 0.0 | 6.4 | 0.00 | 0.05 | 0.05 | 77 | 1014.7 |
| 20260509155717 | 26 | 184 | 1.6 | 6.4 | 0.00 | 0.05 | 0.05 | 80 | 1014.6 |
| 20260509154719 | 25 | 180 | 3.2 | 8.0 | 0.00 | 0.05 | 0.05 | 82 | 1014.8 |
| 20260509153719 | 24 | 212 | 3.2 | 8.0 | 0.00 | 0.05 | 0.05 | 84 | 1014.9 |
| 20260509152818 | 23 | 196 | 1.6 | 6.4 | 0.00 | 0.05 | 0.05 | 87 | 1015.0 |
| 20260509151833 | 23 | 185 | 1.6 | 6.4 | 0.00 | 0.05 | 0.05 | 88 | 1014.9 |
| 20260509150920 | 22 | 163 | 3.2 | 6.4 | 0.00 | 0.05 | 0.05 | 88 | 1015.1 |
| 20260509145933 | 22 | 163 | 0.0 | 1.6 | 0.00 | 0.05 | 0.05 | 88 | 1015.0 |
| 20260509145020 | 22 | 155 | 1.6 | 4.8 | 0.00 | 0.05 | 0.05 | 88 | 1014.7 |
| 20260509143020 | 22 | 171 | 1.6 | 4.8 | 0.00 | 0.05 | 0.05 | 88 | 1014.6 |
| 20260509141020 | 22 | 149 | 3.2 | 6.4 | 0.00 | 0.05 | 0.05 | 88 | 1014.2 |
| 20260509135018 | 22 | 45 | 0.0 | 0.0 | 0.00 | 0.05 | 0.05 | 88 | 1014.6 |
| 20260509134018 | 22 | 45 | 0.0 | 0.0 | 0.00 | 0.05 | 0.05 | 88 | 1014.7 |
| 20260509133020 | 22 | 45 | 0.0 | 0.0 | 0.00 | 0.05 | 0.05 | 88 | 1014.7 |
| 20260509132117 | 22 | 324 | 0.0 | 0.0 | 0.00 | 0.05 | 0.05 | 88 | 1014.8 |
| 20260509131118 | 22 | 52 | 0.0 | 0.0 | 0.00 | 0.05 | 0.05 | 88 | 1014.7 |
| 20260509130118 | 21 | 88 | 0.0 | 0.0 | 0.00 | 0.05 | 0.05 | 88 | 1014.3 |
| 20260509125118 | 21 | 344 | 1.6 | 4.8 | 0.00 | 0.05 | 0.05 | 88 | 1014.1 |
| 20260509124120 | 22 | 337 | 0.0 | 0.0 | 0.00 | 0.05 | 0.05 | 88 | 1014.2 |
| 20260509123118 | 22 | 337 | 0.0 | 0.0 | 0.00 | 0.05 | 0.05 | 88 | 1014.2 |
| 20260509122217 | 22 | 337 | 0.0 | 0.0 | 0.00 | 0.05 | 0.05 | 88 | 1014.2 |
| 20260509115319 | 22 | 337 | 0.0 | 0.0 | 0.00 | 0.05 | 0.05 | 88 | 1014.4 |
| 20260509114333 | 22 | 360 | 0.0 | 0.0 | 0.00 | 0.05 | 0.05 | 88 | 1014.3 |
| 20260509113418 | 22 | 302 | 0.0 | 0.0 | 0.00 | 0.05 | 0.05 | 88 | 1014.7 |
| 20260509112517 | 22 | 292 | 0.0 | 0.0 | 0.00 | 0.05 | 0.05 | 88 | 1015.0 |
| 20260509111538 | 22 | 337 | 0.0 | 0.0 | 0.00 | 0.05 | 0.05 | 88 | 1015.1 |
| 20260509110620 | 22 | 26 | 0.0 | 0.0 | 0.00 | 0.05 | 0.05 | 88 | 1015.1 |
| 20260509110534 | 22 | 29 | 0.0 | 0.0 | 0.00 | 0.05 | 0.05 | 88 | 1015.3 |
| 20260509104633 | 22 | 17 | 0.0 | 0.0 | 0.03 | 0.05 | 0.05 | 88 | 1015.2 |
| 20260509102719 | 22 | 337 | 0.0 | 0.0 | 0.03 | 0.05 | 0.05 | 87 | 1015.0 |
| 20260509101719 | 22 | 112 | 0.0 | 0.0 | 0.03 | 0.05 | 0.05 | 87 | 1014.6 |
| 20260509100817 | 22 | 112 | 0.0 | 0.0 | 0.03 | 0.05 | 0.05 | 87 | 1014.3 |
| 20260509095817 | 22 | 112 | 0.0 | 0.0 | 0.03 | 0.05 | 0.05 | 86 | 1014.1 |
| 20260509093818 | 22 | 112 | 0.0 | 0.0 | 0.03 | 0.03 | 0.03 | 86 | 1014.0 |
| 20260509092917 | 22 | 112 | 0.0 | 0.0 | 0.03 | 0.03 | 0.03 | 86 | 1014.0 |
| 20260509091919 | 22 | 112 | 0.0 | 0.0 | 0.03 | 0.03 | 0.03 | 86 | 1013.8 |
| 20260509090919 | 22 | 112 | 0.0 | 0.0 | 0.03 | 0.03 | 0.03 | 86 | 1013.7 |
| 20260509085918 | 22 | 180 | 0.0 | 0.0 | 0.03 | 0.03 | 0.03 | 86 | 1013.8 |
| 20260509085017 | 22 | 315 | 0.0 | 0.0 | 0.00 | 0.00 | 0.00 | 86 | 1013.8 |
| 20260509084018 | 22 | 315 | 0.0 | 0.0 | 0.00 | 0.00 | 0.00 | 86 | 1014.0 |
| 20260509083018 | 22 | 45 | 0.0 | 0.0 | 0.00 | 0.00 | 0.00 | 86 | 1014.2 |
| 20260509081118 | 22 | 157 | 0.0 | 0.0 | 0.00 | 0.00 | 0.00 | 85 | 1014.4 |
| 20260509075120 | 22 | 135 | 0.0 | 0.0 | 0.00 | 0.00 | 0.00 | 85 | 1014.1 |
| 20260509074118 | 22 | 90 | 0.0 | 0.0 | 0.00 | 0.00 | 0.00 | 85 | 1013.8 |
| 20260509073135 | 22 | 157 | 0.0 | 0.0 | 0.00 | 0.00 | 0.00 | 85 | 1013.8 |
| 20260509072118 | 22 | 157 | 0.0 | 0.0 | 0.00 | 0.00 | 0.00 | 85 | 1014.1 |
| 20260509071217 | 22 | 157 | 0.0 | 0.0 | 0.00 | 0.00 | 0.00 | 85 | 1014.1 |
| 20260509070220 | 22 | 157 | 0.0 | 0.0 | 0.00 | 0.00 | 0.00 | 85 | 1014.4 |
| 20260509065219 | 22 | 157 | 0.0 | 0.0 | 0.00 | 0.00 | 0.00 | 85 | 1014.3 |
| 20260509062217 | 22 | 151 | 1.6 | 3.2 | 0.00 | 0.00 | 0.00 | 85 | 1013.8 |